TimeEDT,TemperatureF,Dew PointF,Humidity,Sea Level PressureIn,VisibilityMPH,Wind Direction,Wind SpeedMPH,Gust SpeedMPH,PrecipitationIn,Events,Conditions,WindDirDegrees,DateUTC
12:53 AM,53.1,50.0,89,29.95,10.0,South,3.5,-,N/A,,Clear,180,2013-10-03 04:53:00
1:53 AM,53.1,48.9,86,29.98,9.0,South,3.5,-,N/A,,Clear,170,2013-10-03 05:53:00
2:53 AM,48.9,46.0,90,29.98,6.0,Calm,Calm,-,N/A,,Clear,0,2013-10-03 06:53:00
3:21 AM,48.2,46.4,93,30.01,2.0,SSE,3.5,-,N/A,,Clear,160,2013-10-03 07:21:00
3:29 AM,48.2,44.6,87,30.01,5.0,Calm,Calm,-,N/A,,Clear,0,2013-10-03 07:29:00
3:48 AM,46.4,44.6,93,30.01,1.8,Calm,Calm,-,N/A,,Clear,0,2013-10-03 07:48:00
3:53 AM,46.9,44.1,90,29.99,1.0,Calm,Calm,-,N/A,,Clear,0,2013-10-03 07:53:00
4:03 AM,46.4,44.6,93,30.01,0.8,Calm,Calm,-,N/A,,Mist,0,2013-10-03 08:03:00
4:22 AM,44.6,42.8,93,30.01,0.2,Calm,Calm,-,N/A,Fog,Fog,0,2013-10-03 08:22:00
4:35 AM,44.6,42.8,93,30.01,0.8,Calm,Calm,-,N/A,,Mist,0,2013-10-03 08:35:00
4:51 AM,46.4,42.8,87,30.01,1.8,Calm,Calm,-,N/A,,Scattered Clouds,0,2013-10-03 08:51:00
4:53 AM,44.1,42.1,93,30.00,4.0,Calm,Calm,-,N/A,,Partly Cloudy,0,2013-10-03 08:53:00
5:01 AM,44.6,42.8,93,30.02,1.2,Calm,Calm,-,N/A,,Scattered Clouds,0,2013-10-03 09:01:00
5:03 AM,44.6,42.8,93,30.02,0.8,Calm,Calm,-,N/A,,Mist,0,2013-10-03 09:03:00
5:11 AM,44.6,42.8,93,30.02,0.8,Calm,Calm,-,N/A,,Clear,0,2013-10-03 09:11:00
5:15 AM,42.8,42.8,100,30.03,0.8,Calm,Calm,-,N/A,,Mist,0,2013-10-03 09:15:00
5:53 AM,43.0,42.1,97,30.04,2.0,Calm,Calm,-,N/A,,Mostly Cloudy,0,2013-10-03 09:53:00
6:00 AM,44.6,42.8,93,30.05,1.2,Calm,Calm,-,N/A,,Scattered Clouds,0,2013-10-03 10:00:00
6:05 AM,42.8,41.0,93,30.05,2.0,Calm,Calm,-,N/A,,Scattered Clouds,0,2013-10-03 10:05:00
6:41 AM,44.6,41.0,87,30.06,1.2,Calm,Calm,-,N/A,,Mostly Cloudy,0,2013-10-03 10:41:00
6:45 AM,44.6,41.0,87,30.06,3.0,Calm,Calm,-,N/A,,Mostly Cloudy,0,2013-10-03 10:45:00
6:47 AM,44.6,41.0,87,30.06,1.8,Calm,Calm,-,N/A,,Mostly Cloudy,0,2013-10-03 10:47:00
6:53 AM,44.1,41.0,89,30.06,1.0,Calm,Calm,-,N/A,,Mist,0,2013-10-03 10:53:00
7:00 AM,44.6,42.8,93,30.07,0.5,Calm,Calm,-,N/A,Fog,Fog,0,2013-10-03 11:00:00
7:07 AM,46.4,44.6,93,30.07,0.2,Calm,Calm,-,N/A,Fog,Fog,0,2013-10-03 11:07:00
7:53 AM,48.0,46.0,93,30.09,0.2,Calm,Calm,-,0.01,Fog,Fog,0,2013-10-03 11:53:00
8:11 AM,48.2,46.4,93,30.09,1.0,Calm,Calm,-,N/A,,Mist,0,2013-10-03 12:11:00
8:21 AM,48.2,46.4,93,30.10,3.0,Calm,Calm,-,N/A,,Mostly Cloudy,0,2013-10-03 12:21:00
8:31 AM,50.0,48.2,94,30.10,9.0,Calm,Calm,-,N/A,,Scattered Clouds,0,2013-10-03 12:31:00
8:53 AM,50.0,48.0,93,30.10,5.0,Calm,Calm,-,N/A,,Partly Cloudy,0,2013-10-03 12:53:00
9:03 AM,51.8,48.2,88,30.10,1.0,Calm,Calm,-,N/A,,Mist,0,2013-10-03 13:03:00
9:18 AM,51.8,48.2,88,30.10,10.0,Calm,Calm,-,N/A,,Partly Cloudy,0,2013-10-03 13:18:00
9:53 AM,57.0,50.0,77,30.09,10.0,Calm,Calm,-,N/A,,Partly Cloudy,0,2013-10-03 13:53:00
10:53 AM,64.0,50.0,60,30.11,10.0,Calm,Calm,-,N/A,,Clear,0,2013-10-03 14:53:00
11:53 AM,70.0,45.0,41,30.07,10.0,Calm,Calm,-,N/A,,Clear,0,2013-10-03 15:53:00
12:53 PM,72.0,44.1,37,30.05,10.0,Calm,Calm,-,N/A,,Clear,0,2013-10-03 16:53:00
1:53 PM,73.0,43.0,34,30.02,10.0,Calm,Calm,-,N/A,,Clear,0,2013-10-03 17:53:00
2:53 PM,73.9,43.0,33,30.01,10.0,Calm,Calm,-,N/A,,Clear,0,2013-10-03 18:53:00
3:53 PM,73.9,44.1,34,30.00,10.0,Calm,Calm,-,N/A,,Clear,0,2013-10-03 19:53:00
4:53 PM,72.0,46.0,40,30.00,10.0,Calm,Calm,-,N/A,,Clear,0,2013-10-03 20:53:00
5:53 PM,63.0,55.0,75,30.01,10.0,Calm,Calm,-,N/A,,Clear,0,2013-10-03 21:53:00
6:53 PM,60.1,53.1,78,30.04,10.0,Calm,Calm,-,N/A,,Clear,0,2013-10-03 22:53:00
7:53 PM,55.0,50.0,83,30.05,10.0,Calm,Calm,-,N/A,,Clear,0,2013-10-03 23:53:00
8:53 PM,52.0,48.0,86,30.06,10.0,Calm,Calm,-,N/A,,Clear,0,2013-10-04 00:53:00
9:53 PM,52.0,48.9,89,30.07,10.0,Calm,Calm,-,N/A,,Clear,0,2013-10-04 01:53:00
10:53 PM,50.0,46.0,86,30.07,10.0,Calm,Calm,-,N/A,,Clear,0,2013-10-04 02:53:00
11:32 PM,48.2,46.4,93,30.08,2.0,Calm,Calm,-,N/A,,Clear,0,2013-10-04 03:32:00
11:41 PM,48.2,44.6,87,30.08,9.0,Calm,Calm,-,N/A,,Clear,0,2013-10-04 03:41:00